Time,TemperatureF,DewpointF,PressureIn,WindDirection,WindDirectionDegrees,WindSpeedMPH,WindSpeedGustMPH,Humidity,HourlyPrecipIn,Conditions,Clouds,dailyrainin,SoftwareType,DateUTC
2013-04-01 00:05:00,58.3,-41.9,29.66,West,270,0.0,-999.0,1,-99.99,,,0.00,Acu-Link.com,2013-04-01 05:05:00,
2013-04-01 00:20:00,57.7,-42.3,29.66,North,0,0.0,-999.0,1,-99.99,,,0.00,Acu-Link.com,2013-04-01 05:20:00,
2013-04-01 00:35:00,57.6,-42.3,29.67,SW,225,0.0,-999.0,1,-99.99,,,0.00,Acu-Link.com,2013-04-01 05:35:00,
2013-04-01 00:51:00,57.6,-42.3,29.68,SW,225,0.0,-999.0,1,-99.99,,,0.00,Acu-Link.com,2013-04-01 05:51:00,
2013-04-01 01:21:00,57.0,-42.7,29.67,SSE,157,0.0,-999.0,1,-99.99,,,0.00,Acu-Link.com,2013-04-01 06:21:00,
2013-04-01 01:37:00,56.5,-43.0,29.67,East,90,0.0,-999.0,1,-99.99,,,0.00,Acu-Link.com,2013-04-01 06:37:00,
2013-04-01 01:52:00,56.8,-42.8,29.66,NNE,22,0.0,-999.0,1,-99.99,,,0.00,Acu-Link.com,2013-04-01 06:52:00,
2013-04-01 02:07:00,56.1,-43.2,29.66,North,0,0.0,-999.0,1,-99.99,,,0.00,Acu-Link.com,2013-04-01 07:07:00,
2013-04-01 02:22:00,55.8,-43.4,29.66,NW,315,0.0,-999.0,1,-99.99,,,0.00,Acu-Link.com,2013-04-01 07:22:00,
2013-04-01 02:38:00,55.4,-43.7,29.67,WSW,247,2.2,-999.0,1,-99.99,,,0.00,Acu-Link.com,2013-04-01 07:38:00,
2013-04-01 02:53:00,55.6,-43.5,29.68,SSE,157,0.0,-999.0,1,-99.99,,,0.00,Acu-Link.com,2013-04-01 07:53:00,
2013-04-01 03:09:00,55.4,-43.7,29.67,SSE,157,0.0,-999.0,1,-99.99,,,0.00,Acu-Link.com,2013-04-01 08:09:00,
2013-04-01 03:24:00,55.6,-43.5,29.67,SSE,157,0.0,-999.0,1,-99.99,,,0.00,Acu-Link.com,2013-04-01 08:24:00,
2013-04-01 03:39:00,55.6,-43.5,29.68,West,270,0.0,-999.0,1,-99.99,,,0.01,Acu-Link.com,2013-04-01 08:39:00,
2013-04-01 03:55:00,55.6,-43.5,29.69,West,270,0.0,-999.0,1,-99.99,,,0.01,Acu-Link.com,2013-04-01 08:55:00,
2013-04-01 04:10:00,55.8,-43.4,29.69,NNW,337,1.1,-999.0,1,-99.99,,,0.01,Acu-Link.com,2013-04-01 09:10:00,
2013-04-01 04:25:00,55.9,-43.3,29.69,North,0,0.0,-999.0,1,-99.99,,,0.01,Acu-Link.com,2013-04-01 09:25:00,
2013-04-01 04:40:00,56.7,-42.9,29.69,NE,45,0.0,-999.0,1,-99.99,,,0.01,Acu-Link.com,2013-04-01 09:40:00,
2013-04-01 04:55:00,57.2,-42.6,29.70,NNE,22,0.0,-999.0,1,-99.99,,,0.01,Acu-Link.com,2013-04-01 09:55:00,
2013-04-01 05:26:00,57.7,-42.3,29.72,West,270,0.0,-999.0,1,-99.99,,,0.01,Acu-Link.com,2013-04-01 10:26:00,
2013-04-01 05:41:00,57.7,-42.3,29.72,West,270,0.0,-999.0,1,-99.99,,,0.01,Acu-Link.com,2013-04-01 10:41:00,
2013-04-01 05:57:00,58.3,-41.9,29.73,WNW,292,0.0,-999.0,1,-99.99,,,0.01,Acu-Link.com,2013-04-01 10:57:00,
2013-04-01 06:12:00,58.5,-41.8,29.74,WNW,292,0.0,-999.0,1,-99.99,,,0.01,Acu-Link.com,2013-04-01 11:12:00,
2013-04-01 06:27:00,57.9,-42.1,29.75,West,270,0.0,-999.0,1,-99.99,,,0.01,Acu-Link.com,2013-04-01 11:27:00,
2013-04-01 06:43:00,58.1,-42.0,29.76,SSW,202,1.7,-999.0,1,-99.99,,,0.01,Acu-Link.com,2013-04-01 11:43:00,
2013-04-01 06:58:00,58.6,-41.7,29.77,SSE,157,0.0,-999.0,1,-99.99,,,0.01,Acu-Link.com,2013-04-01 11:58:00,
2013-04-01 07:13:00,58.5,-41.8,29.77,SSE,157,0.0,-999.0,1,-99.99,,,0.01,Acu-Link.com,2013-04-01 12:13:00,
2013-04-01 07:28:00,58.8,-41.6,29.79,SSW,202,2.2,-999.0,1,-99.99,,,0.01,Acu-Link.com,2013-04-01 12:28:00,
2013-04-01 07:44:00,59.5,-41.2,29.79,SSW,202,0.0,-999.0,1,-99.99,,,0.01,Acu-Link.com,2013-04-01 12:44:00,
2013-04-01 07:59:00,60.1,-40.8,29.79,SW,225,0.0,-999.0,1,-99.99,,,0.01,Acu-Link.com,2013-04-01 12:59:00,
2013-04-01 08:14:00,60.6,-40.5,29.81,NNE,22,0.0,-999.0,1,-99.99,,,0.01,Acu-Link.com,2013-04-01 13:14:00,
2013-04-01 08:30:00,60.8,-40.4,29.81,NNE,22,0.0,-999.0,1,-99.99,,,0.01,Acu-Link.com,2013-04-01 13:30:00,
2013-04-01 08:45:00,60.8,-40.4,29.81,NW,315,1.7,-999.0,1,-99.99,,,0.01,Acu-Link.com,2013-04-01 13:45:00,
2013-04-01 09:00:00,60.6,-40.5,29.81,NE,45,5.3,-999.0,1,-99.99,,,0.01,Acu-Link.com,2013-04-01 14:00:00,
2013-04-01 09:16:00,61.0,-14.8,29.81,NE,45,3.7,-999.0,4,-99.99,,,0.01,Acu-Link.com,2013-04-01 14:16:00,
2013-04-01 09:46:00,65.3,-37.6,29.81,ENE,67,6.3,-999.0,1,-99.99,,,0.01,Acu-Link.com,2013-04-01 14:46:00,
2013-04-01 10:01:00,66.0,-37.2,29.81,ENE,67,6.3,-999.0,1,-99.99,,,0.01,Acu-Link.com,2013-04-01 15:01:00,
2013-04-01 10:17:00,66.7,-36.8,29.81,NE,45,3.7,-999.0,1,-99.99,,,0.01,Acu-Link.com,2013-04-01 15:17:00,
2013-04-01 10:32:00,69.1,-35.4,29.81,West,270,3.2,-999.0,1,-99.99,,,0.01,Acu-Link.com,2013-04-01 15:32:00,
2013-04-01 10:47:00,73.6,-32.7,29.81,NNW,337,4.7,-999.0,1,-99.99,,,0.01,Acu-Link.com,2013-04-01 15:47:00,
2013-04-01 11:02:00,75.0,-31.8,29.81,WNW,292,4.2,-999.0,1,-99.99,,,0.01,Acu-Link.com,2013-04-01 16:02:00,
2013-04-01 11:18:00,76.1,-31.2,29.81,North,0,5.3,-999.0,1,-99.99,,,0.01,Acu-Link.com,2013-04-01 16:18:00,
2013-04-01 11:33:00,73.2,-32.9,29.81,NE,45,6.8,-999.0,1,-99.99,,,0.01,Acu-Link.com,2013-04-01 16:33:00,
2013-04-01 11:48:00,73.0,-33.0,29.81,NNW,337,6.3,-999.0,1,-99.99,,,0.01,Acu-Link.com,2013-04-01 16:48:00,
2013-04-01 12:03:00,73.6,-32.7,29.80,NE,45,5.3,-999.0,1,-99.99,,,0.01,Acu-Link.com,2013-04-01 17:03:00,
2013-04-01 12:18:00,76.1,-31.2,29.80,WNW,292,5.8,-999.0,1,-99.99,,,0.01,Acu-Link.com,2013-04-01 17:18:00,
2013-04-01 12:33:00,76.1,-31.2,29.80,NE,45,4.2,-999.0,1,-99.99,,,0.01,Acu-Link.com,2013-04-01 17:33:00,
2013-04-01 12:48:00,78.4,-29.8,29.79,ENE,67,3.7,-999.0,1,-99.99,,,0.01,Acu-Link.com,2013-04-01 17:48:00,
2013-04-01 13:04:00,79.5,-29.1,29.78,NNW,337,4.2,-999.0,1,-99.99,,,0.01,Acu-Link.com,2013-04-01 18:04:00,
2013-04-01 13:19:00,80.2,-28.7,29.78,NNE,22,4.2,-999.0,1,-99.99,,,0.01,Acu-Link.com,2013-04-01 18:19:00,
2013-04-01 13:34:00,81.1,-28.2,29.76,NE,45,2.7,-999.0,1,-99.99,,,0.01,Acu-Link.com,2013-04-01 18:34:00,
2013-04-01 13:49:00,79.7,-29.0,29.76,West,270,4.7,-999.0,1,-99.99,,,0.01,Acu-Link.com,2013-04-01 18:49:00,
2013-04-01 14:05:00,79.9,-28.9,29.75,NNE,22,5.8,-999.0,1,-99.99,,,0.01,Acu-Link.com,2013-04-01 19:05:00,
2013-04-01 14:20:00,79.5,-29.1,29.74,WNW,292,4.7,-999.0,1,-99.99,,,0.01,Acu-Link.com,2013-04-01 19:20:00,
2013-04-01 14:35:00,80.8,-28.4,29.74,NW,315,1.7,-999.0,1,-99.99,,,0.01,Acu-Link.com,2013-04-01 19:35:00,
2013-04-01 14:50:00,80.8,-28.4,29.72,NE,45,4.2,-999.0,1,-99.99,,,0.01,Acu-Link.com,2013-04-01 19:50:00,
2013-04-01 15:05:00,81.3,-28.1,29.72,NE,45,7.3,-999.0,1,-99.99,,,0.01,Acu-Link.com,2013-04-01 20:05:00,
2013-04-01 15:51:00,80.2,-28.7,29.70,NE,45,7.8,-999.0,1,-99.99,,,0.01,Acu-Link.com,2013-04-01 20:51:00,
2013-04-01 16:07:00,81.3,-28.1,29.70,WNW,292,3.7,-999.0,1,-99.99,,,0.01,Acu-Link.com,2013-04-01 21:07:00,
2013-04-01 16:22:00,80.8,-28.4,29.70,North,0,5.8,-999.0,1,-99.99,,,0.01,Acu-Link.com,2013-04-01 21:22:00,
2013-04-01 16:37:00,80.1,-28.8,29.68,WSW,247,6.8,-999.0,1,-99.99,,,0.01,Acu-Link.com,2013-04-01 21:37:00,
2013-04-01 16:52:00,80.4,-28.6,29.68,NW,315,7.3,-999.0,1,-99.99,,,0.01,Acu-Link.com,2013-04-01 21:52:00,
2013-04-01 17:08:00,79.5,-29.1,29.67,NW,315,5.8,-999.0,1,-99.99,,,0.01,Acu-Link.com,2013-04-01 22:08:00,
2013-04-01 17:23:00,79.2,-29.3,29.67,NE,45,4.7,-999.0,1,-99.99,,,0.01,Acu-Link.com,2013-04-01 22:23:00,
2013-04-01 17:38:00,78.6,-29.7,29.67,NNE,22,7.8,-999.0,1,-99.99,,,0.01,Acu-Link.com,2013-04-01 22:38:00,
2013-04-01 17:53:00,78.4,-29.8,29.67,NE,45,5.8,-999.0,1,-99.99,,,0.01,Acu-Link.com,2013-04-01 22:53:00,
2013-04-01 18:08:00,77.4,-30.4,29.66,NW,315,4.2,-999.0,1,-99.99,,,0.01,Acu-Link.com,2013-04-01 23:08:00,
2013-04-01 18:24:00,75.7,-31.4,29.66,NNE,22,5.3,-999.0,1,-99.99,,,0.01,Acu-Link.com,2013-04-01 23:24:00,
2013-04-01 18:39:00,74.8,-31.9,29.66,NNE,22,4.2,-999.0,1,-99.99,,,0.01,Acu-Link.com,2013-04-01 23:39:00,
2013-04-01 18:54:00,73.6,-32.7,29.66,NNE,22,5.3,-999.0,1,-99.99,,,0.01,Acu-Link.com,2013-04-01 23:54:00,
2013-04-01 19:09:00,72.5,-33.3,29.67,NNE,22,2.7,-999.0,1,-99.99,,,0.01,Acu-Link.com,2013-04-02 00:09:00,
2013-04-01 19:24:00,70.7,-34.4,29.67,NE,45,3.7,-999.0,1,-99.99,,,0.01,Acu-Link.com,2013-04-02 00:24:00,
2013-04-01 19:40:00,68.4,-35.8,29.67,East,90,1.7,-999.0,1,-99.99,,,0.01,Acu-Link.com,2013-04-02 00:40:00,
2013-04-01 19:55:00,66.6,-36.9,29.67,SW,225,1.7,-999.0,1,-99.99,,,0.01,Acu-Link.com,2013-04-02 00:55:00,
2013-04-01 20:10:00,64.4,-38.2,29.68,SSW,202,0.0,-999.0,1,-99.99,,,0.01,Acu-Link.com,2013-04-02 01:10:00,
2013-04-01 20:26:00,62.6,-39.3,29.68,South,180,0.0,-999.0,1,-99.99,,,0.01,Acu-Link.com,2013-04-02 01:26:00,
2013-04-01 21:11:00,59.4,-41.2,29.70,West,270,0.0,-999.0,1,-99.99,,,0.01,Acu-Link.com,2013-04-02 02:11:00,
2013-04-01 21:42:00,58.1,-42.0,29.71,NNW,337,0.0,-999.0,1,-99.99,,,0.01,Acu-Link.com,2013-04-02 02:42:00,
2013-04-01 21:57:00,57.6,-42.3,29.72,NNW,337,0.0,-999.0,1,-99.99,,,0.01,Acu-Link.com,2013-04-02 02:57:00,
2013-04-01 22:13:00,57.2,-42.6,29.73,NNW,337,0.0,-999.0,1,-99.99,,,0.01,Acu-Link.com,2013-04-02 03:13:00,
2013-04-01 22:28:00,56.7,-42.9,29.73,NW,315,0.0,-999.0,1,-99.99,,,0.01,Acu-Link.com,2013-04-02 03:28:00,
2013-04-01 22:43:00,56.3,-43.1,29.74,NW,315,0.0,-999.0,1,-99.99,,,0.01,Acu-Link.com,2013-04-02 03:43:00,
2013-04-01 22:59:00,55.8,-43.4,29.73,NNW,337,0.0,-999.0,1,-99.99,,,0.01,Acu-Link.com,2013-04-02 03:59:00,
2013-04-01 23:14:00,55.8,-43.4,29.73,NNW,337,0.0,-999.0,1,-99.99,,,0.01,Acu-Link.com,2013-04-02 04:14:00,
2013-04-01 23:29:00,55.4,-43.7,29.74,NNW,337,0.0,-999.0,1,-99.99,,,0.01,Acu-Link.com,2013-04-02 04:29:00,
2013-04-01 23:44:00,55.4,-43.7,29.74,NNW,337,0.0,-999.0,1,-99.99,,,0.01,Acu-Link.com,2013-04-02 04:44:00,